• In Germany
  • List of Countries
  • For 7 days
  • Water Temperature
  • Satellite Maps
  • Weather Map
  • Weather Widgets
  • user-avatar
    Login

    Hourly Weather Naftalan

    Today, 27 March, Monday

    Time Temperature Precipitation Wind Pressure Humidity
    00:00 +7°C° 0 mm 4 mps 763 mmHg 82%
    01:00 +8°C° 0 mm 3 mps 763 mmHg 80%
    02:00 +8°C° 0 mm 3 mps 762 mmHg 78%
    03:00 +8°C° 0 mm 2 mps 762 mmHg 77%
    04:00 +8°C° 0 mm 2 mps 762 mmHg 77%
    05:00 +8°C° 0 mm 3 mps 762 mmHg 77%
    06:00 +8°C° 0 mm 3 mps 762 mmHg 78%
    07:00 +11°C° 0 mm 3 mps 762 mmHg 66%
    08:00 +14°C° 0 mm 3 mps 762 mmHg 54%
    09:00 +18°C° 0 mm 4 mps 762 mmHg 43%
    10:00 +20°C° 0 mm 3 mps 761 mmHg 39%
    11:00 +21°C° 0 mm 3 mps 761 mmHg 35%
    12:00 +24°C° 0 mm 3 mps 761 mmHg 31%
    13:00 +23°C° 0 mm 4 mps 760 mmHg 32%
    14:00 +23°C° 0 mm 4 mps 759 mmHg 34%
    15:00 +23°C° 0 mm 4 mps 759 mmHg 35%
    16:00 +21°C° 0 mm 4 mps 759 mmHg 44%
    17:00 +18°C° 0 mm 4 mps 759 mmHg 52%
    18:00 +15°C° 0 mm 4 mps 759 mmHg 61%
    19:00 +14°C° 0 mm 4 mps 759 mmHg 62%
    20:00 +13°C° 0 mm 3 mps 760 mmHg 63%
    21:00 +13°C° 0 mm 3 mps 760 mmHg 64%
    22:00 +13°C° 0 mm 3 mps 760 mmHg 63%
    23:00 +13°C° 0 mm 2 mps 760 mmHg 61%

    Tomorrow, 28 March, Tuesday

    Time Temperature Precipitation Wind Pressure Humidity
    00:00 +13°C° 0 mm 2 mps 760 mmHg 60%
    01:00 +12°C° 0 mm 3 mps 760 mmHg 62%
    02:00 +11°C° 0 mm 3 mps 760 mmHg 64%
    03:00 +10°C° 0 mm 4 mps 760 mmHg 67%
    04:00 +9°C° 0 mm 5 mps 761 mmHg 70%
    05:00 +8°C° 0 mm 5 mps 761 mmHg 74%
    06:00 +8°C° 0 mm 6 mps 762 mmHg 78%
    07:00 +9°C° 0 mm 7 mps 763 mmHg 73%
    08:00 +10°C° 0 mm 8 mps 763 mmHg 68%
    09:00 +12°C° 0 mm 8 mps 764 mmHg 63%
    10:00 +13°C° 0 mm 8 mps 764 mmHg 60%
    11:00 +13°C° 0 mm 8 mps 765 mmHg 58%
    12:00 +15°C° 0 mm 7 mps 765 mmHg 55%
    13:00 +15°C° 0 mm 7 mps 765 mmHg 55%
    14:00 +14°C° 0 mm 6 mps 765 mmHg 55%
    15:00 +14°C° 0 mm 6 mps 764 mmHg 55%
    16:00 +13°C° 0 mm 5 mps 765 mmHg 60%
    17:00 +11°C° 0 mm 4 mps 765 mmHg 65%
    18:00 +10°C° 0 mm 3 mps 765 mmHg 70%
    19:00 +9°C° 0 mm 3 mps 765 mmHg 74%
    20:00 +8°C° 0 mm 2 mps 765 mmHg 79%
    21:00 +8°C° 0 mm 2 mps 765 mmHg 83%
    22:00 +8°C° 0 mm 2 mps 765 mmHg 84%
    23:00 +7°C° 0 mm 2 mps 765 mmHg 85%

    Day after tomorrow, 29 March, Wednesday

    Time Temperature Precipitation Wind Pressure Humidity
    00:00 +7°C° 0 mm 2 mps 764 mmHg 86%
    01:00 +7°C° 0 mm 2 mps 764 mmHg 83%
    02:00 +7°C° 0 mm 2 mps 763 mmHg 81%
    03:00 +8°C° 0 mm 3 mps 763 mmHg 78%
    04:00 +8°C° 0 mm 3 mps 763 mmHg 72%
    05:00 +7°C° 0 mm 4 mps 763 mmHg 67%
    06:00 +7°C° 0 mm 5 mps 763 mmHg 61%
    07:00 +9°C° 0 mm 6 mps 763 mmHg 53%
    08:00 +11°C° 0 mm 7 mps 764 mmHg 45%
    09:00 +15°C° 0 mm 7 mps 764 mmHg 36%
    10:00 +16°C° 0 mm 7 mps 764 mmHg 35%
    11:00 +18°C° 0 mm 7 mps 764 mmHg 33%
    12:00 +20°C° 0 mm 6 mps 764 mmHg 32%
    13:00 +21°C° 0 mm 6 mps 764 mmHg 31%
    14:00 +21°C° 0 mm 5 mps 764 mmHg 31%
    15:00 +22°C° 0 mm 4 mps 763 mmHg 30%
    16:00 +19°C° 0 mm 5 mps 764 mmHg 39%
    17:00 +15°C° 0 mm 5 mps 765 mmHg 48%
    18:00 +13°C° 0 mm 5 mps 766 mmHg 56%
    19:00 +12°C° 0 mm 5 mps 767 mmHg 61%
    20:00 +10°C° 0 mm 5 mps 768 mmHg 66%
    21:00 +10°C° 0 mm 4 mps 769 mmHg 71%
    22:00 +8°C° 0 mm 4 mps 770 mmHg 74%
    23:00 +8°C° 0 mm 5 mps 770 mmHg 78%

    30 March, Thursday

    Time Temperature Precipitation Wind Pressure Humidity
    00:00 +7°C° 0 mm 5 mps 771 mmHg 82%
    01:00 +7°C° 0 mm 5 mps 771 mmHg 82%
    02:00 +7°C° 0 mm 5 mps 772 mmHg 82%
    03:00 +6°C° 0 mm 5 mps 772 mmHg 83%
    04:00 +7°C° 0 mm 5 mps 772 mmHg 82%
    05:00 +7°C° 0 mm 5 mps 773 mmHg 81%
    06:00 +7°C° 0 mm 5 mps 773 mmHg 80%
    07:00 +8°C° 0 mm 5 mps 773 mmHg 75%
    08:00 +9°C° 0 mm 5 mps 773 mmHg 70%
    09:00 +10°C° 0 mm 5 mps 774 mmHg 65%
    10:00 +10°C° 0 mm 5 mps 773 mmHg 66%
    11:00 +12°C° 0 mm 5 mps 772 mmHg 66%
    12:00 +11°C° 0 mm 6 mps 772 mmHg 66%
    13:00 +12°C° 0 mm 5 mps 771 mmHg 66%
    14:00 +12°C° 0 mm 5 mps 770 mmHg 65%
    15:00 +13°C° 0 mm 5 mps 770 mmHg 65%
    16:00 +12°C° 0 mm 5 mps 769 mmHg 70%
    17:00 +11°C° 0 mm 4 mps 769 mmHg 74%
    18:00 +10°C° 0 mm 4 mps 769 mmHg 78%
    19:00 +9°C° 0 mm 3 mps 769 mmHg 82%
    20:00 +8°C° 0 mm 2 mps 768 mmHg 86%
    21:00 +7°C° 0 mm 2 mps 768 mmHg 91%
    22:00 +7°C° 0 mm 2 mps 768 mmHg 91%
    23:00 +7°C° 0 mm 2 mps 767 mmHg 92%

    31 March, Friday

    Time Temperature Precipitation Wind Pressure Humidity
    00:00 +7°C° 0 mm 2 mps 767 mmHg 92%
    01:00 +7°C° 0 mm 2 mps 766 mmHg 93%
    02:00 +5°C° 0 mm 3 mps 766 mmHg 93%
    03:00 +5°C° 0 mm 3 mps 765 mmHg 93%
    04:00 +5°C° 0 mm 3 mps 765 mmHg 92%
    05:00 +5°C° 0 mm 3 mps 765 mmHg 91%
    06:00 +5°C° 0 mm 3 mps 765 mmHg 89%
    07:00 +9°C° 0 mm 3 mps 765 mmHg 77%
    08:00 +12°C° 0 mm 3 mps 765 mmHg 64%
    09:00 +16°C° 0 mm 3 mps 765 mmHg 51%
    10:00 +17°C° 0 mm 3 mps 765 mmHg 46%
    11:00 +19°C° 0 mm 2 mps 765 mmHg 42%
    12:00 +21°C° 0 mm 2 mps 764 mmHg 37%
    13:00 +21°C° 0 mm 3 mps 764 mmHg 37%
    14:00 +21°C° 0 mm 3 mps 764 mmHg 36%
    15:00 +21°C° 0 mm 4 mps 764 mmHg 36%
    16:00 +19°C° 0 mm 5 mps 765 mmHg 42%
    17:00 +16°C° 0 mm 6 mps 766 mmHg 49%
    18:00 +13°C° 0 mm 6 mps 766 mmHg 55%
    19:00 +12°C° 0 mm 7 mps 767 mmHg 56%
    20:00 +11°C° 0 mm 7 mps 768 mmHg 58%
    21:00 +11°C° 0 mm 7 mps 769 mmHg 59%
    22:00 +10°C° 0 mm 8 mps 770 mmHg 61%
    23:00 +10°C° 0 mm 9 mps 770 mmHg 64%

    1 April, Saturday

    Time Temperature Precipitation Wind Pressure Humidity
    00:00 +8°C° 0 mm 9 mps 771 mmHg 67%
    01:00 +8°C° 0 mm 9 mps 771 mmHg 66%
    02:00 +7°C° 0 mm 9 mps 772 mmHg 65%
    03:00 +6°C° 0 mm 9 mps 773 mmHg 63%
    04:00 +6°C° 0.1 mm 9 mps 773 mmHg 66%
    05:00 +5°C° 0.1 mm 10 mps 774 mmHg 68%
    06:00 +5°C° 0.1 mm 10 mps 774 mmHg 70%
    07:00 +3°C° 0.5 mm 10 mps 775 mmHg 71%
    08:00 +3°C° 0.5 mm 10 mps 775 mmHg 72%
    09:00 +3°C° 0.5 mm 10 mps 776 mmHg 73%
    10:00 +5°C° 0.3 mm 9 mps 776 mmHg 72%
    11:00 +5°C° 0.3 mm 9 mps 776 mmHg 70%
    12:00 +5°C° 0.3 mm 9 mps 776 mmHg 69%
    13:00 +6°C° 0.1 mm 8 mps 776 mmHg 68%
    14:00 +6°C° 0.1 mm 8 mps 775 mmHg 67%
    15:00 +6°C° 0.1 mm 7 mps 775 mmHg 66%
    16:00 +6°C° 0.1 mm 7 mps 775 mmHg 67%
    17:00 +5°C° 0.1 mm 6 mps 775 mmHg 68%
    18:00 +5°C° 0.1 mm 6 mps 775 mmHg 70%
    19:00 +6°C° 0.1 mm 5 mps 775 mmHg 71%
    20:00 +5°C° 0.1 mm 4 mps 775 mmHg 72%
    21:00 +5°C° 0.1 mm 4 mps 776 mmHg 73%
    22:00 +5°C° 0 mm 3 mps 775 mmHg 74%
    23:00 +5°C° 0 mm 3 mps 775 mmHg 74%
    Show more